(475132) = 2005 UT321

Discovered at Kitt Peak on 2005-10-27 by Spacewatch.

Orbit

Orbit type: Main Belt

Note: WebGL enabled browser required.

epoch2023-02-25.0
epoch JD2460000.5
perihelion date2020-10-20.74853
perihelion JD2459143.24853
argument of perihelion (°)45.98573
ascending node (°)246.10554
inclination (°)20.47321
eccentricity0.1328700
perihelion distance (AU)2.7229352
Tisserand w.r.t. Jupiter3.1
ΔV w.r.t. Earth (km/sec)12.1
semimajor axis (AU)3.1401694
mean anomaly (°)151.83870
mean daily motion (°/day)0.17712270
aphelion distance (AU)3.557
period (years)5.56
P-vector [x]0.33455081
P-vector [y]-0.93330238
P-vector [z]-0.13047000
Q-vector [x]0.88645871
Q-vector [y]0.26468693
Q-vector [z]0.37964693
absolute magnitude16.09
phase slope0.15
uncertainty0
referenceMPO 731503
observations used141
oppositions10
arc length (days)6300
first opposition used2005
last opposition used2023
residual rms (arc-secs)0.76
perturbers coarse indicatorM-v
perturbers precise indicator003Ek
first observation date used2005-10-27.0
last observation date used2023-01-26.0
computer nameMPCLINUX
JD of orbit computation2457703.135761
perihelion JD uncertainty (days)2.9504E-04
argument of perihelion uncertainty (°)6.1237E-05
ascending node uncertainty (°)2.4093E-05
inclination uncertainty (°)1.3544E-05
eccentricity uncertainty 8.9657E-08
perihelion distance uncertainty (AU)2.9935E-07
Minimum Orbit Intersection Distances (in AU)
for orbit epoch: 2460000.5, reference: E2023-BE3
Mercury2.2915
Venus2.02593
Earth1.74319
Mars1.30314
Jupiter1.62652
Saturn5.58637
Uranus15.283
Neptune26.54

Observations

143 total observations over interval: 2005 10 27.41835 – 2023 01 26.263342
These data are available for download (format description).

